Location: Peterborough
(44.3091°N, 78.3197°W)
Time: 09:42:19
(UTC-04:00)

A-11 Canister half - Pass Details

Date: 14 September 2024
Orbit: 1515 x 1684 km, 47.2° (Epoch: 02 October)

Event Time Altitude Azimuth Distance (km) Brightness Sun altitude
Rises 22:47:16 0° 273° (W) 4,689 12.1 -33.3°
Reaches altitude 10° 22:50:20 10° 275° (W) 3,694 11.5 -33.6°
Maximum altitude 22:59:38 75° 1° (N) 1,565 8.9 -34.7°
Enters shadow 23:01:25 61° 61° (ENE) 1,694 9.0 -34.9°
